Location: Newark
(51.3318°N, 0.0053°E)
Time: 04:37:29
(UTC+00:00)

CUBEBUG 2 - Pass Details

Date: 03 July 2022
Orbit: 584 x 692 km, 97.7° (Epoch: 14 August)

Event Time Altitude Azimuth Distance (km) Brightness Sun altitude
Rises 02:59:12 0° 15° (NNE) 2,835 ? -6.4°
Reaches altitude 10° 03:01:22 10° 18° (NNE) 1,937 ? -6.2°
Maximum altitude 03:05:33 68° 103° (ESE) 652 ? -5.7°
Drops below altitude 10° 03:09:48 10° 186° (S) 1,970 ? -5.3°
Enters shadow 03:11:44 - 189° (S) 2,768 ? -5.1°
